Location: Ay?beleni
(36.6500°N, 30.3000°E)
Time: 04:28:27
(UTC+00:00)

SL-8 R/B - Pass Details

Date: 16 October 2021
Orbit: 656 x 667 km, 48.4° (Epoch: 08 December)

Event Time Altitude Azimuth Distance (km) Brightness Sun altitude
Rises 17:07:38 0° 243° (WSW) 2,973 8.0 -22.1°
Reaches altitude 10° 17:10:00 10° 247° (WSW) 2,066 7.1 -22.6°
Maximum altitude 17:14:43 62° 328° (NNW) 743 4.0 -23.5°
Enters shadow 17:15:48 48° 21° (NNE) 867 4.1 -23.8°
